{"data":{"norad_id":59626,"intl_designator":"2024-081B","name":"LEGION 2","alt_names":[],"object_type":"PAYLOAD","status":"ACTIVE","operator":null,"country":"US","launch_date":"2024-05-02","launch_site_code":"AFWTR","launch_vehicle":null,"mission":null,"orbit_class":"UNKNOWN","rcs_meters":null,"size_class":null,"mass_kg":null,"dimensions":null,"purposes":["earth_obs"],"wikipedia_slug":null,"has_3d_model":false,"image_url":null,"decayed_at":null,"tle_current":{"epoch":"2026-09-19T21:58:43.891392Z","epoch_age_seconds":68826,"freshness":"FRESH","line1":"1 59626U 24081B   26262.91578578  .00002131  00000+0  11051-3 0  9998","line2":"2 59626  97.4948 339.8563 0011571  15.4349 344.7235 15.17201951131903","mean_motion":15.17201951,"eccentricity":0.0011571,"inclination_deg":97.4948,"raan_deg":339.8563,"arg_perigee_deg":15.4349,"mean_anomaly_deg":344.7235,"bstar":0.00011051,"rev_number":13190,"period_min":94.911557360632,"perigee_km":506.32647067868,"apogee_km":522.27695234486,"semimajor_km":6892.4387115118,"source":"CELESTRAK","updated_at":"2026-09-20T09:00:33.979379Z"}}}